Location: Moena
(46.3667°N, 11.6500°E)
Time: 09:33:44
(UTC+00:00)

GP-B - Pass Details

Date: 25 June 2021
Orbit: 631 x 635 km, 89.8° (Epoch: 28 July)

Event Time Altitude Azimuth Distance (km) Brightness Sun altitude
Rises 21:51:43 0° 13° (NNE) 2,942 7.5 -17.7°
Reaches altitude 10° 21:54:20 10° 27° (NNE) 2,028 6.3 -17.8°
Maximum altitude 21:57:57 24° 82° (E) 1,322 4.6 -18.1°
Enters shadow 21:59:13 21° 107° (ESE) 1,427 4.6 -18.1°
